SYB1011 EHRD-EHRD

Flight info

Callsign SYB1011
Flight time 0h 13m
Altitude 17000
Route ANDIK2A/06 ANDIK N873 GRONY
Aircraft C700/M-SBDGHM1RWXY/LB2

Departure

Time 2026-04-27 14:20
Airport Rotterdam The Hague Airport (EHRD)

Arrival

Time 2026-04-27 14:34
Airport Rotterdam The Hague Airport (EHRD)
Time Latitude Longitude Altitude Speed Heading
2026-04-27 14:20 52.14883 4.77498 5032 ft 257 kts 45°
2026-04-27 14:20 52.15758 4.80040 5010 ft 263 kts 75°
2026-04-27 14:21 52.15675 4.82999 5012 ft 267 kts 107°
2026-04-27 14:21 52.14672 4.85488 5005 ft 271 kts 136°
2026-04-27 14:21 52.12987 4.86873 5008 ft 276 kts 166°
2026-04-27 14:21 52.11078 4.86747 5006 ft 276 kts 194°
2026-04-27 14:22 52.09258 4.85723 5011 ft 275 kts 201°
2026-04-27 14:22 52.07490 4.84583 5009 ft 275 kts 202°
2026-04-27 14:22 52.05720 4.83409 5015 ft 274 kts 202°
2026-04-27 14:22 52.03944 4.82224 5012 ft 278 kts 202°
2026-04-27 14:23 52.02175 4.81040 4797 ft 273 kts 202°
2026-04-27 14:23 52.00430 4.79869 4542 ft 276 kts 202°
2026-04-27 14:23 51.98660 4.78685 4285 ft 272 kts 202°
2026-04-27 14:23 51.96908 4.77507 4034 ft 272 kts 202°
2026-04-27 14:24 51.95190 4.76349 3988 ft 264 kts 202°
2026-04-27 14:24 51.93472 4.75191 3993 ft 269 kts 202°
2026-04-27 14:24 51.91756 4.74021 3990 ft 271 kts 202°
2026-04-27 14:24 51.90015 4.72827 3982 ft 272 kts 202°
2026-04-27 14:25 51.88269 4.71623 3931 ft 275 kts 203°
2026-04-27 14:25 51.86706 4.69870 3703 ft 274 kts 230°
2026-04-27 14:25 51.85807 4.67223 3520 ft 269 kts 249°
2026-04-27 14:25 51.85172 4.64389 3312 ft 268 kts 252°
2026-04-27 14:26 51.84566 4.61539 3111 ft 266 kts 252°
2026-04-27 14:26 51.83984 4.58761 3014 ft 263 kts 253°
2026-04-27 14:26 51.83379 4.55945 2769 ft 262 kts 251°
2026-04-27 14:26 51.82778 4.53210 2510 ft 254 kts 252°
2026-04-27 14:27 51.82213 4.50549 2249 ft 248 kts 252°
2026-04-27 14:27 51.81654 4.47932 2020 ft 243 kts 251°
2026-04-27 14:27 51.81113 4.45406 1990 ft 231 kts 252°
2026-04-27 14:27 51.80606 4.43056 1991 ft 218 kts 252°
2026-04-27 14:28 51.80112 4.40783 1983 ft 210 kts 252°
2026-04-27 14:28 51.79620 4.38532 1975 ft 212 kts 254°
2026-04-27 14:28 51.79574 4.36226 1970 ft 204 kts 292°
2026-04-27 14:28 51.80324 4.34380 1987 ft 200 kts 313°
2026-04-27 14:29 51.81219 4.32645 1985 ft 200 kts 312°
2026-04-27 14:29 51.82097 4.30899 1990 ft 201 kts 311°
2026-04-27 14:29 51.82985 4.29160 1985 ft 200 kts 311°
2026-04-27 14:29 51.83885 4.27461 1990 ft 201 kts 312°
2026-04-27 14:30 51.84802 4.25716 1994 ft 204 kts 313°
2026-04-27 14:30 51.85728 4.23994 1988 ft 199 kts 321°
2026-04-27 14:30 51.86975 4.23209 1988 ft 198 kts
2026-04-27 14:30 51.88247 4.23939 1988 ft 195 kts 32°
2026-04-27 14:31 51.89230 4.25425 1986 ft 196 kts 62°
2026-04-27 14:31 51.89479 4.27585 1991 ft 196 kts 83°
2026-04-27 14:31 51.89837 4.29711 1907 ft 199 kts 58°
2026-04-27 14:31 51.90632 4.31550 1779 ft 198 kts 53°
2026-04-27 14:32 51.91454 4.33333 1550 ft 195 kts 55°
2026-04-27 14:32 51.92145 4.35239 1301 ft 195 kts 59°
2026-04-27 14:32 51.92801 4.36959 1203 ft 154 kts 54°
2026-04-27 14:32 51.93434 4.38406 871 ft 159 kts 53°
2026-04-27 14:33 51.94044 4.39873 571 ft 150 kts 55°
2026-04-27 14:33 51.94588 4.41283 325 ft 148 kts 54°
2026-04-27 14:33 51.95130 4.42631 76 ft 143 kts 55°
2026-04-27 14:33 51.95619 4.43854 -6 ft 88 kts 59°
2026-04-27 14:34 51.95791 4.44293 -6 ft 34 kts 57°
2026-04-27 14:34 51.95904 4.44564 -8 ft 18 kts 58°
2026-04-27 14:34 51.95862 4.44724 -5 ft 18 kts 148°
2026-04-27 14:34 51.95761 4.44695 -5 ft 18 kts 237°
2026-04-27 14:35 51.95685 4.44504 -5 ft 22 kts 237°
2026-04-27 14:35 51.95600 4.44287 -5 ft 24 kts 238°
2026-04-27 14:35 51.95501 4.44042 -5 ft 27 kts 236°
2026-04-27 14:35 51.95390 4.43775 -5 ft 30 kts 236°
2026-04-27 14:36 51.95291 4.43533 -5 ft 16 kts 233°
2026-04-27 14:36 51.95188 4.43569 -5 ft 18 kts 147°
2026-04-27 14:36 51.95071 4.43690 -5 ft 21 kts 147°
2026-04-27 14:36 51.95024 4.43795 -5 ft 10 kts 59°
2026-04-27 14:37 51.95045 4.43820 -5 ft 2 kts 338°
2026-04-27 14:37 51.95057 4.43809 -5 ft 3 kts 328°
2026-04-27 14:37 51.95060 4.43806 -5 ft 0 kts 328°